Time,TemperatureF,DewpointF,PressureIn,WindDirection,WindDirectionDegrees,WindSpeedMPH,WindSpeedGustMPH,Humidity,HourlyPrecipIn,Conditions,Clouds,dailyrainin,SolarRadiationWatts/m^2,SoftwareType,DateUTC
2013-06-26 00:02:00,76.0,70.8,29.90,SE,144,0.0,0.0,84,0.00,CLR,,0.00,0.0,WeatherDisplay:10.37,2013-06-26 05:02:00,
2013-06-26 00:07:00,76.0,70.8,29.90,SE,144,0.0,0.0,84,0.00,CLR,,0.00,0.0,WeatherDisplay:10.37,2013-06-26 05:07:00,
2013-06-26 00:12:00,75.8,71.0,29.90,SE,144,0.0,0.0,85,0.00,CLR,,0.00,0.0,WeatherDisplay:10.37,2013-06-26 05:12:00,
2013-06-26 00:17:00,75.7,70.9,29.90,SE,144,0.0,0.0,85,0.00,CLR,,0.00,0.0,WeatherDisplay:10.37,2013-06-26 05:17:00,
2013-06-26 00:22:00,75.6,71.1,29.89,SE,144,0.0,0.0,86,0.00,CLR,,0.00,0.0,WeatherDisplay:10.37,2013-06-26 05:22:00,
2013-06-26 00:27:00,75.4,70.9,29.89,SE,144,0.0,0.0,86,0.00,CLR,,0.00,0.0,WeatherDisplay:10.37,2013-06-26 05:27:00,
2013-06-26 00:32:00,75.3,70.8,29.89,SE,144,0.0,0.0,86,0.00,CLR,,0.00,0.0,WeatherDisplay:10.37,2013-06-26 05:32:00,
2013-06-26 00:37:00,75.1,70.6,29.89,SE,144,0.0,0.0,86,0.00,CLR,,0.00,0.0,WeatherDisplay:10.37,2013-06-26 05:37:00,
2013-06-26 00:42:00,74.9,70.8,29.89,SE,144,0.0,0.0,87,0.00,CLR,,0.00,0.0,WeatherDisplay:10.37,2013-06-26 05:42:00,
2013-06-26 00:47:00,74.7,70.6,29.89,SE,144,0.0,0.0,87,0.00,CLR,,0.00,0.0,WeatherDisplay:10.37,2013-06-26 05:47:00,
2013-06-26 00:52:00,74.7,70.6,29.89,SE,144,0.0,0.0,87,0.00,CLR,,0.00,0.0,WeatherDisplay:10.37,2013-06-26 05:52:00,
2013-06-26 00:57:00,74.8,70.7,29.89,SE,144,0.0,0.0,87,0.00,CLR,,0.00,0.0,WeatherDisplay:10.37,2013-06-26 05:57:00,
2013-06-26 01:02:00,74.7,70.6,29.89,SE,144,0.0,0.0,87,0.00,CLR,,0.00,0.0,WeatherDisplay:10.37,2013-06-26 06:02:00,
2013-06-26 01:07:00,74.5,70.4,29.89,SE,144,0.0,0.0,87,0.00,CLR,,0.00,0.0,WeatherDisplay:10.37,2013-06-26 06:07:00,
2013-06-26 01:12:00,74.4,70.3,29.89,SE,144,0.0,0.0,87,0.00,CLR,,0.00,0.0,WeatherDisplay:10.37,2013-06-26 06:12:00,
2013-06-26 01:17:00,74.5,70.4,29.89,SE,144,0.0,0.0,87,0.00,CLR,,0.00,0.0,WeatherDisplay:10.37,2013-06-26 06:17:00,
2013-06-26 01:22:00,74.5,70.4,29.89,SE,144,0.0,0.0,87,0.00,CLR,,0.00,0.0,WeatherDisplay:10.37,2013-06-26 06:22:00,
2013-06-26 01:27:00,74.4,70.3,29.89,SE,144,0.0,0.0,87,0.00,CLR,,0.00,0.0,WeatherDisplay:10.37,2013-06-26 06:27:00,
2013-06-26 01:32:00,74.2,70.4,29.88,SE,144,0.0,0.0,88,0.00,CLR,,0.00,0.0,WeatherDisplay:10.37,2013-06-26 06:32:00,
2013-06-26 01:37:00,74.1,70.4,29.89,SE,144,0.0,0.0,88,0.00,CLR,,0.00,0.0,WeatherDisplay:10.37,2013-06-26 06:37:00,
2013-06-26 01:42:00,74.1,70.3,29.89,South,174,0.0,0.0,88,0.00,CLR,,0.00,0.0,WeatherDisplay:10.37,2013-06-26 06:42:00,
2013-06-26 01:47:00,74.1,70.3,29.89,SW,216,0.0,0.0,88,0.00,CLR,,0.00,0.0,WeatherDisplay:10.37,2013-06-26 06:47:00,
2013-06-26 01:52:00,74.1,70.3,29.89,SW,222,0.0,0.0,88,0.00,CLR,,0.00,0.0,WeatherDisplay:10.37,2013-06-26 06:52:00,
2013-06-26 01:57:00,74.0,70.2,29.88,SW,222,0.0,0.0,88,0.00,CLR,,0.00,0.0,WeatherDisplay:10.37,2013-06-26 06:57:00,
2013-06-26 02:02:00,73.9,70.1,29.88,SW,222,0.0,0.0,88,0.00,CLR,,0.00,0.0,WeatherDisplay:10.37,2013-06-26 07:02:00,
2013-06-26 02:07:00,73.9,70.1,29.88,SW,222,0.0,0.0,88,0.00,CLR,,0.00,0.0,WeatherDisplay:10.37,2013-06-26 07:07:00,
2013-06-26 02:12:00,73.8,70.4,29.88,SW,222,0.0,0.0,89,0.00,CLR,,0.00,0.0,WeatherDisplay:10.37,2013-06-26 07:12:00,
2013-06-26 02:17:00,73.6,70.2,29.88,SW,222,0.0,0.0,89,0.00,CLR,,0.00,0.0,WeatherDisplay:10.37,2013-06-26 07:17:00,
2013-06-26 02:22:00,73.5,70.1,29.87,SW,222,0.0,0.0,89,0.00,CLR,,0.00,0.0,WeatherDisplay:10.37,2013-06-26 07:22:00,
2013-06-26 02:27:00,73.3,69.9,29.87,SW,222,0.0,0.0,89,0.00,CLR,,0.00,0.0,WeatherDisplay:10.37,2013-06-26 07:27:00,
2013-06-26 02:32:00,73.3,70.2,29.87,SW,222,0.0,0.0,90,0.00,CLR,,0.00,0.0,WeatherDisplay:10.37,2013-06-26 07:32:00,
2013-06-26 02:37:00,73.2,70.1,29.87,SW,222,0.0,0.0,90,0.00,CLR,,0.00,0.0,WeatherDisplay:10.37,2013-06-26 07:37:00,
2013-06-26 02:42:00,73.0,69.9,29.87,WSW,244,0.0,0.0,90,0.00,CLR,,0.00,0.0,WeatherDisplay:10.37,2013-06-26 07:42:00,
2013-06-26 02:47:00,72.8,69.7,29.87,WSW,244,0.0,0.0,90,0.00,CLR,,0.00,0.0,WeatherDisplay:10.37,2013-06-26 07:47:00,
2013-06-26 02:52:00,72.8,69.7,29.87,WSW,244,0.0,0.0,90,0.00,CLR,,0.00,0.0,WeatherDisplay:10.37,2013-06-26 07:52:00,
2013-06-26 02:57:00,72.8,70.0,29.86,WSW,244,0.0,0.0,91,0.00,CLR,,0.00,0.0,WeatherDisplay:10.37,2013-06-26 07:57:00,
2013-06-26 03:02:00,72.8,70.0,29.86,WSW,244,0.0,0.0,91,0.00,CLR,,0.00,0.0,WeatherDisplay:10.37,2013-06-26 08:02:00,
2013-06-26 03:07:00,72.7,69.6,29.87,WSW,244,0.0,0.0,90,0.00,CLR,,0.00,0.0,WeatherDisplay:10.37,2013-06-26 08:07:00,
2013-06-26 03:12:00,72.5,69.7,29.86,WSW,244,0.0,0.0,91,0.00,CLR,,0.00,0.0,WeatherDisplay:10.37,2013-06-26 08:12:00,
2013-06-26 03:17:00,72.5,69.7,29.86,WSW,244,0.0,0.0,91,0.00,CLR,,0.00,0.0,WeatherDisplay:10.37,2013-06-26 08:17:00,
2013-06-26 03:22:00,72.4,69.6,29.86,WSW,244,0.0,0.0,91,0.00,CLR,,0.00,0.0,WeatherDisplay:10.37,2013-06-26 08:22:00,
2013-06-26 03:27:00,72.4,69.6,29.86,WSW,244,0.0,0.0,91,0.00,CLR,,0.00,0.0,WeatherDisplay:10.37,2013-06-26 08:27:00,
2013-06-26 03:32:00,72.4,69.6,29.86,WSW,244,0.0,0.0,91,0.00,CLR,,0.00,0.0,WeatherDisplay:10.37,2013-06-26 08:32:00,
2013-06-26 03:37:00,72.3,69.5,29.86,WSW,244,0.0,0.0,91,0.00,CLR,,0.00,0.0,WeatherDisplay:10.37,2013-06-26 08:37:00,
2013-06-26 03:42:00,72.3,69.5,29.86,WSW,244,0.0,0.0,91,0.00,CLR,,0.00,0.0,WeatherDisplay:10.37,2013-06-26 08:42:00,
2013-06-26 03:47:00,72.3,69.8,29.86,WSW,244,0.0,0.0,92,0.00,CLR,,0.00,0.0,WeatherDisplay:10.37,2013-06-26 08:47:00,
2013-06-26 03:52:00,72.3,69.8,29.86,WSW,244,0.0,0.0,92,0.00,CLR,,0.00,0.0,WeatherDisplay:10.37,2013-06-26 08:52:00,
2013-06-26 03:57:00,72.2,69.4,29.86,WSW,244,0.0,0.0,91,0.00,CLR,,0.00,0.0,WeatherDisplay:10.37,2013-06-26 08:57:00,
2013-06-26 04:02:00,72.2,69.7,29.86,WSW,244,0.0,0.0,92,0.00,CLR,,0.00,0.0,WeatherDisplay:10.37,2013-06-26 09:02:00,
2013-06-26 04:07:00,72.2,69.7,29.86,WSW,244,0.0,0.0,92,0.00,CLR,,0.00,0.0,WeatherDisplay:10.37,2013-06-26 09:07:00,
2013-06-26 04:12:00,72.2,69.7,29.86,WSW,244,0.0,3.0,92,0.00,CLR,,0.00,0.0,WeatherDisplay:10.37,2013-06-26 09:12:00,
2013-06-26 04:17:00,72.0,69.5,29.87,WSW,244,0.0,1.0,92,0.00,CLR,,0.00,0.0,WeatherDisplay:10.37,2013-06-26 09:17:00,
2013-06-26 04:22:00,71.9,69.5,29.87,WSW,244,0.0,0.0,92,0.00,CLR,,0.00,0.0,WeatherDisplay:10.37,2013-06-26 09:22:00,
2013-06-26 04:27:00,71.9,69.4,29.87,WSW,244,0.0,0.0,92,0.00,CLR,,0.00,0.0,WeatherDisplay:10.37,2013-06-26 09:27:00,
2013-06-26 04:32:00,71.9,69.4,29.87,WSW,244,0.0,0.0,92,0.00,CLR,,0.00,0.0,WeatherDisplay:10.37,2013-06-26 09:32:00,
2013-06-26 04:37:00,71.9,69.4,29.87,WSW,244,0.0,0.0,92,0.00,CLR,,0.00,0.0,WeatherDisplay:10.37,2013-06-26 09:37:00,
2013-06-26 04:42:00,71.9,69.4,29.87,WSW,244,0.0,0.0,92,0.00,CLR,,0.00,0.0,WeatherDisplay:10.37,2013-06-26 09:42:00,
2013-06-26 04:47:00,71.7,69.3,29.87,WSW,244,0.0,0.0,92,0.00,CLR,,0.00,0.0,WeatherDisplay:10.37,2013-06-26 09:47:00,
2013-06-26 04:52:00,71.8,69.7,29.88,WSW,244,0.0,1.0,93,0.00,CLR,,0.00,0.0,WeatherDisplay:10.37,2013-06-26 09:52:00,
2013-06-26 04:57:00,71.8,69.3,29.87,WSW,244,0.0,0.0,92,0.00,CLR,,0.00,0.0,WeatherDisplay:10.37,2013-06-26 09:57:00,
2013-06-26 05:02:00,71.8,69.3,29.88,WSW,244,0.0,0.0,92,0.00,CLR,,0.00,0.0,WeatherDisplay:10.37,2013-06-26 10:02:00,
2013-06-26 05:07:00,71.7,69.3,29.88,WSW,244,0.0,0.0,92,0.00,CLR,,0.00,0.0,WeatherDisplay:10.37,2013-06-26 10:07:00,
2013-06-26 05:12:00,71.8,69.7,29.88,WSW,244,0.0,0.0,93,0.00,CLR,,0.00,0.0,WeatherDisplay:10.37,2013-06-26 10:12:00,
2013-06-26 05:17:00,71.9,69.8,29.88,WSW,244,0.0,0.0,93,0.00,CLR,,0.00,0.0,WeatherDisplay:10.37,2013-06-26 10:17:00,
2013-06-26 05:22:00,71.9,69.8,29.88,WSW,244,0.0,0.0,93,0.00,CLR,,0.00,0.0,WeatherDisplay:10.37,2013-06-26 10:22:00,
2013-06-26 05:27:00,71.7,69.3,29.88,WSW,244,0.0,0.0,92,0.00,CLR,,0.00,0.0,WeatherDisplay:10.37,2013-06-26 10:27:00,
2013-06-26 05:32:00,71.7,69.6,29.88,WSW,244,0.0,0.0,93,0.00,CLR,,0.00,0.0,WeatherDisplay:10.37,2013-06-26 10:32:00,
2013-06-26 05:37:00,71.7,69.6,29.89,WSW,244,0.0,0.0,93,0.00,CLR,,0.00,0.0,WeatherDisplay:10.37,2013-06-26 10:37:00,
2013-06-26 05:42:00,71.5,69.1,29.89,WSW,244,0.0,0.0,92,0.00,CLR,,0.00,0.0,WeatherDisplay:10.37,2013-06-26 10:42:00,
2013-06-26 05:43:00,71.5,69.1,29.89,WSW,244,0.0,0.0,92,0.00,CLR,,0.00,0.0,WeatherDisplay:10.37,2013-06-26 10:43:00,
2013-06-26 05:48:00,71.5,69.4,29.89,WSW,244,0.0,0.0,93,0.00,CLR,,0.00,0.0,WeatherDisplay:10.37,2013-06-26 10:48:00,
2013-06-26 05:53:00,71.4,69.0,29.89,WSW,244,0.0,0.0,92,0.00,CLR,,0.00,0.0,WeatherDisplay:10.37,2013-06-26 10:53:00,
2013-06-26 05:58:00,71.3,69.2,29.89,WSW,244,0.0,0.0,93,0.00,CLR,,0.00,0.0,WeatherDisplay:10.37,2013-06-26 10:58:00,
2013-06-26 06:03:00,71.4,69.3,29.89,WSW,244,0.0,0.0,93,0.00,CLR,,0.00,0.0,WeatherDisplay:10.37,2013-06-26 11:03:00,
2013-06-26 06:08:00,71.4,69.3,29.90,WSW,244,0.0,0.0,93,0.00,CLR,,0.00,5.0,WeatherDisplay:10.37,2013-06-26 11:08:00,
2013-06-26 06:13:00,71.3,69.2,29.90,WSW,244,0.0,0.0,93,0.00,CLR,,0.00,9.0,WeatherDisplay:10.37,2013-06-26 11:13:00,
2013-06-26 06:18:00,71.3,69.2,29.90,WSW,244,0.0,0.0,93,0.00,CLR,,0.00,14.0,WeatherDisplay:10.37,2013-06-26 11:18:00,
2013-06-26 06:23:00,71.3,69.2,29.90,WSW,244,0.0,0.0,93,0.00,CLR,,0.00,18.0,WeatherDisplay:10.37,2013-06-26 11:23:00,
2013-06-26 06:28:00,71.4,69.3,29.90,WSW,244,0.0,0.0,93,0.00,CLR,,0.00,21.0,WeatherDisplay:10.37,2013-06-26 11:28:00,
2013-06-26 06:33:00,71.5,69.4,29.90,WSW,244,0.0,0.0,93,0.00,CLR,,0.00,26.0,WeatherDisplay:10.37,2013-06-26 11:33:00,
2013-06-26 06:38:00,71.6,69.5,29.90,WSW,244,0.0,0.0,93,0.00,CLR,,0.00,30.0,WeatherDisplay:10.37,2013-06-26 11:38:00,
2013-06-26 06:43:00,71.8,69.7,29.90,WSW,244,0.0,0.0,93,0.00,CLR,,0.00,35.0,WeatherDisplay:10.37,2013-06-26 11:43:00,
2013-06-26 06:48:00,71.9,69.8,29.91,WSW,244,0.0,0.0,93,0.00,CLR,,0.00,39.0,WeatherDisplay:10.37,2013-06-26 11:48:00,
2013-06-26 06:53:00,72.1,70.0,29.91,WSW,244,0.0,0.0,93,0.00,CLR,,0.00,42.0,WeatherDisplay:10.37,2013-06-26 11:53:00,
2013-06-26 06:58:00,72.4,70.3,29.91,WSW,244,0.0,0.0,93,0.00,CLR,,0.00,46.0,WeatherDisplay:10.37,2013-06-26 11:58:00,
2013-06-26 07:03:00,72.9,70.8,29.91,WSW,244,0.0,0.0,93,0.00,CLR,,0.00,49.0,WeatherDisplay:10.37,2013-06-26 12:03:00,
2013-06-26 07:08:00,73.2,71.1,29.91,WSW,244,0.0,0.0,93,0.00,CLR,,0.00,53.0,WeatherDisplay:10.37,2013-06-26 12:08:00,
2013-06-26 07:13:00,73.8,71.3,29.91,WSW,244,0.0,0.0,92,0.00,CLR,,0.00,63.0,WeatherDisplay:10.37,2013-06-26 12:13:00,
2013-06-26 07:18:00,74.3,71.5,29.91,WSW,244,0.0,0.0,91,0.00,CLR,,0.00,67.0,WeatherDisplay:10.37,2013-06-26 12:18:00,
2013-06-26 07:23:00,74.8,71.7,29.92,WSW,244,0.0,0.0,90,0.00,CLR,,0.00,77.0,WeatherDisplay:10.37,2013-06-26 12:23:00,
2013-06-26 07:28:00,75.2,72.1,29.92,WSW,244,0.0,0.0,90,0.00,CLR,,0.00,70.0,WeatherDisplay:10.37,2013-06-26 12:28:00,
2013-06-26 07:33:00,75.7,72.2,29.92,WSW,244,0.0,0.0,89,0.00,CLR,,0.00,76.0,WeatherDisplay:10.37,2013-06-26 12:33:00,
2013-06-26 07:38:00,76.1,72.3,29.92,WSW,244,0.0,0.0,88,0.00,CLR,,0.00,76.0,WeatherDisplay:10.37,2013-06-26 12:38:00,
2013-06-26 07:43:00,76.6,72.4,29.92,WSW,244,0.0,0.0,87,0.00,CLR,,0.00,93.0,WeatherDisplay:10.37,2013-06-26 12:43:00,
2013-06-26 07:48:00,77.2,72.7,29.92,WSW,244,0.0,0.0,86,0.00,CLR,,0.00,93.0,WeatherDisplay:10.37,2013-06-26 12:48:00,
2013-06-26 07:53:00,77.6,73.1,29.92,WSW,244,0.0,0.0,86,0.00,CLR,,0.00,121.0,WeatherDisplay:10.37,2013-06-26 12:53:00,
2013-06-26 07:58:00,78.2,73.3,29.92,WSW,244,0.0,0.0,85,0.00,CLR,,0.00,130.0,WeatherDisplay:10.37,2013-06-26 12:58:00,
2013-06-26 08:03:00,78.7,73.8,29.92,WSW,244,0.0,0.0,85,0.00,CLR,,0.00,225.0,WeatherDisplay:10.37,2013-06-26 13:03:00,
2013-06-26 08:08:00,79.0,73.4,29.93,WSW,244,0.0,0.0,83,0.00,CLR,,0.00,276.0,WeatherDisplay:10.37,2013-06-26 13:08:00,
2013-06-26 08:13:00,79.6,73.3,29.93,WSW,257,1.2,2.6,81,0.00,CLR,,0.00,290.0,WeatherDisplay:10.37,2013-06-26 13:13:00,
2013-06-26 08:18:00,80.1,73.0,29.93,West,265,0.8,1.3,79,0.00,CLR,,0.00,311.0,WeatherDisplay:10.37,2013-06-26 13:18:00,
2013-06-26 08:23:00,80.6,73.5,29.93,SW,231,0.6,1.3,79,0.00,CLR,,0.00,325.0,WeatherDisplay:10.37,2013-06-26 13:23:00,
2013-06-26 08:28:00,80.9,74.1,29.93,SW,230,0.1,1.1,80,0.00,CLR,,0.00,341.0,WeatherDisplay:10.37,2013-06-26 13:28:00,
2013-06-26 08:33:00,81.4,73.5,29.93,SW,216,1.5,6.9,77,0.00,CLR,,0.00,357.0,WeatherDisplay:10.37,2013-06-26 13:33:00,
2013-06-26 08:38:00,81.9,74.0,29.93,West,279,0.0,1.1,77,0.00,CLR,,0.00,380.0,WeatherDisplay:10.37,2013-06-26 13:38:00,
2013-06-26 08:43:00,82.3,74.0,29.92,SSW,193,0.5,4.0,76,0.00,CLR,,0.00,403.0,WeatherDisplay:10.37,2013-06-26 13:43:00,
2013-06-26 08:48:00,82.5,73.4,29.93,SSW,194,0.7,1.1,74,0.00,CLR,,0.00,420.0,WeatherDisplay:10.37,2013-06-26 13:48:00,
2013-06-26 08:53:00,82.8,72.8,29.92,SSW,199,6.2,6.9,72,0.00,CLR,,0.00,432.0,WeatherDisplay:10.37,2013-06-26 13:53:00,
2013-06-26 08:58:00,83.0,72.2,29.93,SSW,202,5.1,8.1,70,0.00,CLR,,0.00,455.0,WeatherDisplay:10.37,2013-06-26 13:58:00,
2013-06-26 09:03:00,83.2,72.0,29.92,SSW,201,4.8,8.1,69,0.00,CLR,,0.00,476.0,WeatherDisplay:10.37,2013-06-26 14:03:00,
2013-06-26 09:08:00,83.5,72.7,29.92,WNW,284,2.3,5.8,70,0.00,CLR,,0.00,497.0,WeatherDisplay:10.37,2013-06-26 14:08:00,
2013-06-26 09:13:00,83.8,72.5,29.92,WSW,240,7.0,8.1,69,0.00,CLR,,0.00,513.0,WeatherDisplay:10.37,2013-06-26 14:13:00,
2013-06-26 09:18:00,83.9,72.2,29.92,SSW,202,3.6,9.2,68,0.00,CLR,,0.00,524.0,WeatherDisplay:10.37,2013-06-26 14:18:00,
2013-06-26 09:23:00,84.2,72.0,29.93,SW,218,8.0,12.7,67,0.00,CLR,,0.00,543.0,WeatherDisplay:10.37,2013-06-26 14:23:00,
2013-06-26 09:28:00,84.2,71.2,29.92,SW,231,7.1,9.2,65,0.00,CLR,,0.00,550.0,WeatherDisplay:10.37,2013-06-26 14:28:00,
2013-06-26 09:33:00,84.5,72.3,29.92,SSW,212,3.8,5.8,67,0.00,CLR,,0.00,584.0,WeatherDisplay:10.37,2013-06-26 14:33:00,
2013-06-26 09:38:00,85.1,72.9,29.92,South,191,2.3,5.8,67,0.00,CLR,,0.00,589.0,WeatherDisplay:10.37,2013-06-26 14:38:00,
2013-06-26 09:43:00,85.1,72.0,29.92,SSW,205,7.8,10.4,65,0.00,CLR,,0.00,580.0,WeatherDisplay:10.37,2013-06-26 14:43:00,
2013-06-26 09:48:00,85.0,71.9,29.92,NNW,343,2.4,10.4,65,0.00,CLR,,0.00,587.0,WeatherDisplay:10.37,2013-06-26 14:48:00,
2013-06-26 09:53:00,85.5,72.4,29.92,SW,221,2.2,5.3,65,0.00,CLR,,0.00,598.0,WeatherDisplay:10.37,2013-06-26 14:53:00,
2013-06-26 09:58:00,85.4,71.8,29.92,SW,219,8.0,10.6,64,0.00,CLR,,0.00,608.0,WeatherDisplay:10.37,2013-06-26 14:58:00,
2013-06-26 10:03:00,85.3,72.6,29.92,South,184,3.0,5.8,66,0.00,CLR,,0.00,622.0,WeatherDisplay:10.37,2013-06-26 15:03:00,
2013-06-26 10:08:00,85.5,72.4,29.92,West,267,3.4,6.9,65,0.00,CLR,,0.00,633.0,WeatherDisplay:10.37,2013-06-26 15:08:00,
2013-06-26 10:13:00,85.7,72.1,29.92,SW,228,4.1,6.9,64,0.00,CLR,,0.00,649.0,WeatherDisplay:10.37,2013-06-26 15:13:00,
2013-06-26 10:18:00,85.6,71.1,29.92,SSW,196,6.4,11.5,62,0.00,CLR,,0.00,659.0,WeatherDisplay:10.37,2013-06-26 15:18:00,
2013-06-26 10:23:00,85.9,71.8,29.92,South,188,1.9,8.1,63,0.00,CLR,,0.00,670.0,WeatherDisplay:10.37,2013-06-26 15:23:00,
2013-06-26 10:28:00,86.2,71.6,29.92,SSW,207,5.8,8.1,62,0.00,CLR,,0.00,686.0,WeatherDisplay:10.37,2013-06-26 15:28:00,
2013-06-26 10:33:00,86.0,72.4,29.92,SW,234,2.2,9.2,64,0.00,CLR,,0.00,696.0,WeatherDisplay:10.37,2013-06-26 15:33:00,
2013-06-26 10:38:00,86.5,72.4,29.92,South,184,3.1,6.9,63,0.00,CLR,,0.00,712.0,WeatherDisplay:10.37,2013-06-26 15:38:00,
2013-06-26 10:43:00,86.8,72.2,29.92,South,179,4.4,8.1,62,0.00,CLR,,0.00,722.0,WeatherDisplay:10.37,2013-06-26 15:43:00,
2013-06-26 10:48:00,86.7,71.2,29.92,SW,219,5.1,10.4,60,0.00,CLR,,0.00,735.0,WeatherDisplay:10.37,2013-06-26 15:48:00,
2013-06-26 10:53:00,86.9,71.3,29.92,WSW,246,5.7,11.5,60,0.00,CLR,,0.00,745.0,WeatherDisplay:10.37,2013-06-26 15:53:00,
2013-06-26 10:58:00,87.3,72.7,29.92,SW,236,3.5,7.9,62,0.00,CLR,,0.00,758.0,WeatherDisplay:10.37,2013-06-26 15:58:00,
2013-06-26 11:03:00,87.6,72.0,29.92,West,279,4.8,9.2,60,0.00,CLR,,0.00,770.0,WeatherDisplay:10.37,2013-06-26 16:03:00,
2013-06-26 11:08:00,87.5,73.3,29.92,SW,219,6.0,6.9,63,0.00,CLR,,0.00,779.0,WeatherDisplay:10.37,2013-06-26 16:08:00,
2013-06-26 11:13:00,87.4,73.7,29.92,WSW,240,2.9,8.1,64,0.00,CLR,,0.00,786.0,WeatherDisplay:10.37,2013-06-26 16:13:00,
2013-06-26 11:18:00,87.3,71.7,29.92,SW,223,4.5,8.1,60,0.00,CLR,,0.00,796.0,WeatherDisplay:10.37,2013-06-26 16:18:00,
2013-06-26 11:23:00,88.3,72.7,29.91,SW,224,2.6,3.5,60,0.00,CLR,,0.00,807.0,WeatherDisplay:10.37,2013-06-26 16:23:00,
2013-06-26 11:28:00,88.2,71.6,29.92,SE,128,2.4,5.8,58,0.00,CLR,,0.00,816.0,WeatherDisplay:10.37,2013-06-26 16:28:00,
2013-06-26 11:33:00,88.2,71.6,29.92,SW,221,4.5,6.9,58,0.00,CLR,,0.00,824.0,WeatherDisplay:10.37,2013-06-26 16:33:00,
2013-06-26 11:38:00,87.9,71.8,29.91,WSW,252,4.6,9.2,59,0.00,CLR,,0.00,831.0,WeatherDisplay:10.37,2013-06-26 16:38:00,
2013-06-26 11:43:00,88.4,73.2,29.91,SSE,155,5.9,8.1,61,0.00,CLR,,0.00,842.0,WeatherDisplay:10.37,2013-06-26 16:43:00,
2013-06-26 11:48:00,88.4,73.7,29.91,WSW,250,2.4,2.4,62,0.00,CLR,,0.00,847.0,WeatherDisplay:10.37,2013-06-26 16:48:00,
2013-06-26 11:53:00,88.6,72.9,29.91,SW,217,3.1,7.9,60,0.00,CLR,,0.00,856.0,WeatherDisplay:10.37,2013-06-26 16:53:00,
2013-06-26 11:58:00,88.5,72.3,29.91,WNW,286,4.0,6.9,59,0.00,CLR,,0.00,867.0,WeatherDisplay:10.37,2013-06-26 16:58:00,
2013-06-26 12:03:00,88.8,72.6,29.91,West,269,2.2,2.3,59,0.00,CLR,,0.00,872.0,WeatherDisplay:10.37,2013-06-26 17:03:00,
2013-06-26 12:08:00,89.2,73.0,29.91,SSW,201,5.3,6.9,59,0.00,CLR,,0.00,875.0,WeatherDisplay:10.37,2013-06-26 17:08:00,
2013-06-26 12:13:00,88.9,74.2,29.91,SW,225,2.1,5.8,62,0.00,CLR,,0.00,881.0,WeatherDisplay:10.37,2013-06-26 17:13:00,
2013-06-26 12:18:00,89.6,74.4,29.91,South,178,4.7,7.9,61,0.00,CLR,,0.00,882.0,WeatherDisplay:10.37,2013-06-26 17:18:00,
2013-06-26 12:23:00,89.7,73.0,29.91,SSW,213,3.0,8.1,58,0.00,CLR,,0.00,893.0,WeatherDisplay:10.37,2013-06-26 17:23:00,
2013-06-26 12:28:00,90.1,73.8,29.91,WSW,248,4.8,5.8,59,0.00,CLR,,0.00,896.0,WeatherDisplay:10.37,2013-06-26 17:28:00,
2013-06-26 12:33:00,90.1,74.8,29.91,WSW,239,2.7,5.8,61,0.00,CLR,,0.00,893.0,WeatherDisplay:10.37,2013-06-26 17:33:00,
2013-06-26 12:38:00,90.6,75.3,29.91,WSW,239,1.5,5.8,61,0.00,CLR,,0.00,909.0,WeatherDisplay:10.37,2013-06-26 17:38:00,
2013-06-26 12:43:00,90.8,72.9,29.91,West,263,3.4,8.1,56,0.00,CLR,,0.00,907.0,WeatherDisplay:10.37,2013-06-26 17:43:00,
2013-06-26 12:48:00,90.6,72.8,29.91,SSW,209,6.9,9.2,56,0.00,CLR,,0.00,911.0,WeatherDisplay:10.37,2013-06-26 17:48:00,
2013-06-26 12:53:00,91.0,76.7,29.90,WNW,301,3.5,6.9,63,0.00,CLR,,0.00,909.0,WeatherDisplay:10.37,2013-06-26 17:53:00,
2013-06-26 12:58:00,91.1,74.3,29.90,SSW,204,6.4,7.9,58,0.00,CLR,,0.00,932.0,WeatherDisplay:10.37,2013-06-26 17:58:00,
2013-06-26 13:03:00,90.8,75.0,29.90,WNW,284,1.7,3.5,60,0.00,CLR,,0.00,921.0,WeatherDisplay:10.37,2013-06-26 18:03:00,
2013-06-26 13:08:00,91.3,75.0,29.90,NW,326,2.7,5.8,59,0.00,CLR,,0.00,921.0,WeatherDisplay:10.37,2013-06-26 18:08:00,
2013-06-26 13:13:00,91.1,72.7,29.90,South,187,5.1,10.4,55,0.00,CLR,,0.00,926.0,WeatherDisplay:10.37,2013-06-26 18:13:00,
2013-06-26 13:18:00,91.4,74.5,29.90,SW,223,2.8,8.1,58,0.00,CLR,,0.00,923.0,WeatherDisplay:10.37,2013-06-26 18:18:00,
2013-06-26 13:23:00,91.5,74.6,29.90,SW,224,0.4,4.0,58,0.00,CLR,,0.00,926.0,WeatherDisplay:10.37,2013-06-26 18:23:00,
2013-06-26 13:28:00,91.7,76.3,29.90,West,259,1.9,3.5,61,0.00,CLR,,0.00,926.0,WeatherDisplay:10.37,2013-06-26 18:28:00,
2013-06-26 13:33:00,91.6,74.7,29.90,WNW,294,3.5,5.8,58,0.00,CLR,,0.00,928.0,WeatherDisplay:10.37,2013-06-26 18:33:00,
2013-06-26 13:38:00,92.0,76.1,29.90,South,189,2.7,8.1,60,0.00,CLR,,0.00,928.0,WeatherDisplay:10.37,2013-06-26 18:38:00,
2013-06-26 13:43:00,92.2,75.8,29.90,WNW,301,1.9,3.5,59,0.00,CLR,,0.00,925.0,WeatherDisplay:10.37,2013-06-26 18:43:00,
2013-06-26 13:48:00,92.2,75.3,29.90,SSW,204,6.5,10.6,58,0.00,CLR,,0.00,912.0,WeatherDisplay:10.37,2013-06-26 18:48:00,
2013-06-26 13:53:00,91.8,72.2,29.89,WSW,247,5.9,10.4,53,0.00,CLR,,0.00,923.0,WeatherDisplay:10.37,2013-06-26 18:53:00,
2013-06-26 13:58:00,92.2,72.6,29.89,WSW,239,4.0,6.9,53,0.00,CLR,,0.00,919.0,WeatherDisplay:10.37,2013-06-26 18:58:00,
2013-06-26 14:03:00,92.6,74.1,29.89,WSW,242,2.9,9.2,55,0.00,CLR,,0.00,907.0,WeatherDisplay:10.37,2013-06-26 19:03:00,
2013-06-26 14:08:00,92.9,73.8,29.89,SW,223,5.5,6.9,54,0.00,CLR,,0.00,921.0,WeatherDisplay:10.37,2013-06-26 19:08:00,
2013-06-26 14:13:00,92.8,73.7,29.89,SW,231,3.5,7.9,54,0.00,CLR,,0.00,919.0,WeatherDisplay:10.37,2013-06-26 19:13:00,
2013-06-26 14:18:00,92.4,72.8,29.89,SW,236,6.7,11.5,53,0.00,CLR,,0.00,911.0,WeatherDisplay:10.37,2013-06-26 19:18:00,
2013-06-26 14:23:00,92.8,74.3,29.89,WNW,302,4.0,8.1,55,0.00,CLR,,0.00,902.0,WeatherDisplay:10.37,2013-06-26 19:23:00,
2013-06-26 14:28:00,93.0,73.9,29.88,NW,306,6.7,9.2,54,0.00,CLR,,0.00,900.0,WeatherDisplay:10.37,2013-06-26 19:28:00,
2013-06-26 14:34:00,93.1,74.5,29.88,SW,222,2.7,5.8,55,0.00,CLR,,0.00,911.0,WeatherDisplay:10.37,2013-06-26 19:34:00,
2013-06-26 14:39:00,93.7,78.2,29.89,SSW,202,5.2,8.1,61,0.00,CLR,,0.00,896.0,WeatherDisplay:10.37,2013-06-26 19:39:00,
2013-06-26 14:44:00,93.3,73.0,29.88,West,273,4.5,5.8,52,0.00,CLR,,0.00,891.0,WeatherDisplay:10.37,2013-06-26 19:44:00,
2013-06-26 14:49:00,93.1,72.3,29.88,SW,232,5.7,6.9,51,0.00,CLR,,0.00,830.0,WeatherDisplay:10.37,2013-06-26 19:49:00,
2013-06-26 14:54:00,93.1,75.6,29.88,West,280,3.0,4.0,57,0.00,CLR,,0.00,896.0,WeatherDisplay:10.37,2013-06-26 19:54:00,
2013-06-26 14:59:00,93.3,74.2,29.88,SW,223,12.0,13.2,54,0.00,CLR,,0.00,824.0,WeatherDisplay:10.37,2013-06-26 19:59:00,
2013-06-26 15:04:00,93.2,75.2,29.88,SSW,207,3.7,6.6,56,0.00,CLR,,0.00,833.0,WeatherDisplay:10.37,2013-06-26 20:04:00,
2013-06-26 15:09:00,93.3,74.7,29.87,NNE,17,2.9,5.8,55,0.00,CLR,,0.00,798.0,WeatherDisplay:10.37,2013-06-26 20:09:00,
2013-06-26 15:14:00,93.5,76.0,29.87,West,260,1.7,5.8,57,0.00,CLR,,0.00,809.0,WeatherDisplay:10.37,2013-06-26 20:14:00,
2013-06-26 15:19:00,93.4,73.7,29.88,SSW,196,5.1,9.2,53,0.00,CLR,,0.00,810.0,WeatherDisplay:10.37,2013-06-26 20:19:00,
2013-06-26 15:24:00,93.8,76.8,29.87,WNW,301,3.9,5.8,58,0.00,CLR,,0.00,803.0,WeatherDisplay:10.37,2013-06-26 20:24:00,
2013-06-26 15:29:00,93.8,74.1,29.87,SW,219,5.6,8.1,53,0.00,CLR,,0.00,789.0,WeatherDisplay:10.37,2013-06-26 20:29:00,
2013-06-26 15:34:00,93.9,74.7,29.87,South,189,3.9,4.0,54,0.00,CLR,,0.00,788.0,WeatherDisplay:10.37,2013-06-26 20:34:00,
2013-06-26 15:39:00,94.0,75.4,29.87,SW,223,3.0,4.0,55,0.00,CLR,,0.00,779.0,WeatherDisplay:10.37,2013-06-26 20:39:00,
2013-06-26 15:44:00,94.0,74.8,29.87,WNW,303,2.3,3.5,54,0.00,CLR,,0.00,759.0,WeatherDisplay:10.37,2013-06-26 20:44:00,
2013-06-26 15:49:00,93.8,74.6,29.87,WNW,302,0.8,5.8,54,0.00,CLR,,0.00,747.0,WeatherDisplay:10.37,2013-06-26 20:49:00,
2013-06-26 15:54:00,93.9,74.7,29.86,WNW,298,2.2,5.8,54,0.00,CLR,,0.00,744.0,WeatherDisplay:10.37,2013-06-26 20:54:00,
2013-06-26 15:59:00,94.2,74.4,29.86,SSW,208,3.3,9.2,53,0.00,CLR,,0.00,728.0,WeatherDisplay:10.37,2013-06-26 20:59:00,
2013-06-26 16:04:00,94.0,77.0,29.86,WNW,303,2.2,5.3,58,0.00,CLR,,0.00,715.0,WeatherDisplay:10.37,2013-06-26 21:04:00,
2013-06-26 16:09:00,93.9,75.3,29.86,SW,233,3.5,6.9,55,0.00,CLR,,0.00,701.0,WeatherDisplay:10.37,2013-06-26 21:09:00,
2013-06-26 16:14:00,94.0,72.5,29.86,NNW,328,4.6,8.1,50,0.00,CLR,,0.00,691.0,WeatherDisplay:10.37,2013-06-26 21:14:00,
2013-06-26 16:19:00,94.3,72.8,29.86,SW,216,6.5,8.1,50,0.00,CLR,,0.00,675.0,WeatherDisplay:10.37,2013-06-26 21:19:00,
2013-06-26 16:24:00,94.2,75.0,29.86,West,278,3.0,5.8,54,0.00,CLR,,0.00,654.0,WeatherDisplay:10.37,2013-06-26 21:24:00,
2013-06-26 16:29:00,94.2,73.3,29.86,SW,218,4.5,11.5,51,0.00,CLR,,0.00,645.0,WeatherDisplay:10.37,2013-06-26 21:29:00,
2013-06-26 16:34:00,94.0,74.3,29.86,NE,46,2.3,3.5,53,0.00,CLR,,0.00,636.0,WeatherDisplay:10.37,2013-06-26 21:34:00,
2013-06-26 16:39:00,94.2,73.9,29.86,South,191,4.5,9.2,52,0.00,CLR,,0.00,624.0,WeatherDisplay:10.37,2013-06-26 21:39:00,
2013-06-26 16:44:00,94.3,74.5,29.85,SSW,205,3.3,6.9,53,0.00,CLR,,0.00,605.0,WeatherDisplay:10.37,2013-06-26 21:44:00,
2013-06-26 16:49:00,94.2,72.7,29.85,SSW,211,8.6,13.2,50,0.00,CLR,,0.00,591.0,WeatherDisplay:10.37,2013-06-26 21:49:00,
2013-06-26 16:54:00,94.1,73.2,29.85,West,279,0.5,2.6,51,0.00,CLR,,0.00,575.0,WeatherDisplay:10.37,2013-06-26 21:54:00,
2013-06-26 16:59:00,94.1,74.4,29.85,SW,225,2.5,6.9,53,0.00,CLR,,0.00,561.0,WeatherDisplay:10.37,2013-06-26 21:59:00,
2013-06-26 17:04:00,94.3,75.1,29.85,NW,309,4.4,8.1,54,0.00,CLR,,0.00,541.0,WeatherDisplay:10.37,2013-06-26 22:04:00,
2013-06-26 17:09:00,94.0,74.8,29.85,South,190,1.7,5.8,54,0.00,CLR,,0.00,538.0,WeatherDisplay:10.37,2013-06-26 22:09:00,
2013-06-26 17:14:00,93.9,73.6,29.85,SSW,202,6.4,9.2,52,0.00,CLR,,0.00,524.0,WeatherDisplay:10.37,2013-06-26 22:14:00,
2013-06-26 17:19:00,94.0,74.3,29.85,SW,214,2.5,5.8,53,0.00,CLR,,0.00,506.0,WeatherDisplay:10.37,2013-06-26 22:19:00,
2013-06-26 17:24:00,94.0,73.7,29.85,West,267,1.5,8.1,52,0.00,CLR,,0.00,492.0,WeatherDisplay:10.37,2013-06-26 22:24:00,
2013-06-26 17:29:00,94.0,73.1,29.84,West,259,0.2,1.1,51,0.00,CLR,,0.00,471.0,WeatherDisplay:10.37,2013-06-26 22:29:00,
2013-06-26 17:34:00,93.9,72.4,29.84,NW,306,5.6,8.1,50,0.00,CLR,,0.00,454.0,WeatherDisplay:10.37,2013-06-26 22:34:00,
2013-06-26 17:39:00,93.7,72.8,29.84,NW,304,2.4,5.8,51,0.00,CLR,,0.00,443.0,WeatherDisplay:10.37,2013-06-26 22:39:00,
2013-06-26 17:44:00,93.7,72.8,29.84,West,277,1.8,5.8,51,0.00,CLR,,0.00,427.0,WeatherDisplay:10.37,2013-06-26 22:44:00,
2013-06-26 17:49:00,93.8,74.1,29.84,WNW,283,3.0,3.5,53,0.00,CLR,,0.00,411.0,WeatherDisplay:10.37,2013-06-26 22:49:00,
2013-06-26 17:54:00,93.8,72.3,29.84,WNW,291,3.1,4.0,50,0.00,CLR,,0.00,396.0,WeatherDisplay:10.37,2013-06-26 22:54:00,
2013-06-26 17:59:00,93.7,74.0,29.84,SW,234,0.9,5.8,53,0.00,CLR,,0.00,380.0,WeatherDisplay:10.37,2013-06-26 22:59:00,
2013-06-26 18:04:00,93.7,72.8,29.84,WSW,237,3.8,5.8,51,0.00,CLR,,0.00,362.0,WeatherDisplay:10.37,2013-06-26 23:04:00,
2013-06-26 18:09:00,93.5,72.7,29.83,SW,236,5.6,8.1,51,0.00,CLR,,0.00,346.0,WeatherDisplay:10.37,2013-06-26 23:09:00,
2013-06-26 18:14:00,93.2,74.1,29.83,West,277,4.7,6.9,54,0.00,CLR,,0.00,332.0,WeatherDisplay:10.37,2013-06-26 23:14:00,
2013-06-26 18:19:00,93.2,73.0,29.83,SW,232,4.7,6.9,52,0.00,CLR,,0.00,315.0,WeatherDisplay:10.37,2013-06-26 23:19:00,
2013-06-26 18:24:00,93.1,74.0,29.83,NW,304,3.1,3.5,54,0.00,CLR,,0.00,287.0,WeatherDisplay:10.37,2013-06-26 23:24:00,
2013-06-26 18:29:00,92.9,73.8,29.83,West,281,1.6,6.9,54,0.00,CLR,,0.00,253.0,WeatherDisplay:10.37,2013-06-26 23:29:00,
2013-06-26 18:34:00,92.6,73.5,29.83,West,276,4.2,6.9,54,0.00,CLR,,0.00,244.0,WeatherDisplay:10.37,2013-06-26 23:34:00,
2013-06-26 18:39:00,92.5,73.4,29.84,WSW,242,2.9,6.9,54,0.00,CLR,,0.00,221.0,WeatherDisplay:10.37,2013-06-26 23:39:00,
2013-06-26 18:44:00,92.4,73.3,29.84,SW,223,1.0,2.3,54,0.00,CLR,,0.00,225.0,WeatherDisplay:10.37,2013-06-26 23:44:00,
2013-06-26 18:49:00,92.3,73.8,29.84,SSW,212,4.0,5.8,55,0.00,CLR,,0.00,209.0,WeatherDisplay:10.37,2013-06-26 23:49:00,
2013-06-26 18:54:00,92.2,73.7,29.84,WNW,298,2.4,5.8,55,0.00,CLR,,0.00,193.0,WeatherDisplay:10.37,2013-06-26 23:54:00,
2013-06-26 18:59:00,92.1,73.6,29.85,WSW,254,2.0,4.0,55,0.00,CLR,,0.00,179.0,WeatherDisplay:10.37,2013-06-26 23:59:00,
2013-06-26 19:04:00,92.0,75.1,29.84,WNW,290,0.1,1.3,58,0.00,CLR,,0.00,162.0,WeatherDisplay:10.37,2013-06-27 00:04:00,
2013-06-26 19:09:00,91.9,74.5,29.85,West,281,1.6,2.3,57,0.00,CLR,,0.00,114.0,WeatherDisplay:10.37,2013-06-27 00:09:00,
2013-06-26 19:14:00,91.5,75.7,29.85,West,281,0.0,0.0,60,0.00,CLR,,0.00,53.0,WeatherDisplay:10.37,2013-06-27 00:14:00,
2013-06-26 19:19:00,90.6,74.8,29.85,West,281,0.0,0.0,60,0.00,CLR,,0.00,25.0,WeatherDisplay:10.37,2013-06-27 00:19:00,
2013-06-26 19:24:00,90.1,73.8,29.85,West,281,0.8,1.3,59,0.00,CLR,,0.00,19.0,WeatherDisplay:10.37,2013-06-27 00:24:00,
2013-06-26 19:29:00,89.2,74.0,29.85,West,281,0.0,0.0,61,0.00,CLR,,0.00,18.0,WeatherDisplay:10.37,2013-06-27 00:29:00,
2013-06-26 19:34:00,88.8,73.6,29.85,West,281,0.0,0.0,61,0.00,CLR,,0.00,16.0,WeatherDisplay:10.37,2013-06-27 00:34:00,
2013-06-26 19:39:00,88.3,73.6,29.85,West,281,0.0,0.0,62,0.00,CLR,,0.00,16.0,WeatherDisplay:10.37,2013-06-27 00:39:00,
2013-06-26 19:44:00,87.9,74.7,29.85,West,281,0.0,0.0,65,0.00,CLR,,0.00,14.0,WeatherDisplay:10.37,2013-06-27 00:44:00,
2013-06-26 19:49:00,87.5,73.8,29.86,West,281,0.0,0.0,64,0.00,CLR,,0.00,14.0,WeatherDisplay:10.37,2013-06-27 00:49:00,
2013-06-26 19:54:00,87.2,74.0,29.86,West,281,0.0,0.0,65,0.00,CLR,,0.00,12.0,WeatherDisplay:10.37,2013-06-27 00:54:00,
2013-06-26 19:59:00,87.0,73.3,29.86,West,281,0.0,0.0,64,0.00,CLR,,0.00,12.0,WeatherDisplay:10.37,2013-06-27 00:59:00,
2013-06-26 20:04:00,87.0,73.8,29.85,West,281,0.0,0.0,65,0.00,CLR,,0.00,12.0,WeatherDisplay:10.37,2013-06-27 01:04:00,
2013-06-26 20:09:00,86.5,73.8,29.86,West,281,0.0,0.0,66,0.00,CLR,,0.00,12.0,WeatherDisplay:10.37,2013-06-27 01:09:00,
2013-06-26 20:14:00,86.0,74.2,29.86,West,281,0.0,0.0,68,0.00,CLR,,0.00,12.0,WeatherDisplay:10.37,2013-06-27 01:14:00,
2013-06-26 20:19:00,85.5,73.7,29.86,West,281,0.0,0.0,68,0.00,CLR,,0.00,11.0,WeatherDisplay:10.37,2013-06-27 01:19:00,
2013-06-26 20:24:00,85.8,74.0,29.87,West,281,0.0,0.0,68,0.00,CLR,,0.00,7.0,WeatherDisplay:10.37,2013-06-27 01:24:00,
2013-06-26 20:29:00,85.8,74.0,29.86,West,281,0.0,0.0,68,0.00,CLR,,0.00,0.0,WeatherDisplay:10.37,2013-06-27 01:29:00,
2013-06-26 20:34:00,85.5,73.7,29.87,West,281,0.0,0.0,68,0.00,CLR,,0.00,0.0,WeatherDisplay:10.37,2013-06-27 01:34:00,
2013-06-26 20:39:00,84.8,74.3,29.87,West,281,0.0,0.0,71,0.00,CLR,,0.00,0.0,WeatherDisplay:10.37,2013-06-27 01:39:00,
2013-06-26 20:45:00,84.2,74.6,29.87,West,281,0.0,0.0,73,0.00,CLR,,0.00,0.0,WeatherDisplay:10.37,2013-06-27 01:45:00,
2013-06-26 20:50:00,83.7,74.5,29.87,West,281,0.0,0.0,74,0.00,CLR,,0.00,0.0,WeatherDisplay:10.37,2013-06-27 01:50:00,
2013-06-26 20:55:00,83.4,75.0,29.86,West,281,0.0,0.0,76,0.00,CLR,,0.00,0.0,WeatherDisplay:10.37,2013-06-27 01:55:00,
2013-06-26 21:00:00,83.3,74.5,29.87,West,281,0.0,0.0,75,0.00,CLR,,0.00,0.0,WeatherDisplay:10.37,2013-06-27 02:00:00,
2013-06-26 21:05:00,83.4,73.8,29.87,West,281,0.0,0.0,73,0.00,CLR,,0.00,0.0,WeatherDisplay:10.37,2013-06-27 02:05:00,
2013-06-26 21:10:00,83.3,74.9,29.86,West,281,0.0,0.0,76,0.00,CLR,,0.00,0.0,WeatherDisplay:10.37,2013-06-27 02:10:00,
2013-06-26 21:15:00,83.1,74.7,29.87,West,281,0.2,1.1,76,0.00,CLR,,0.00,0.0,WeatherDisplay:10.37,2013-06-27 02:15:00,
2013-06-26 21:20:00,83.0,74.3,29.87,West,281,0.0,0.0,75,0.00,CLR,,0.00,0.0,WeatherDisplay:10.37,2013-06-27 02:20:00,
2013-06-26 21:25:00,82.9,74.2,29.87,West,281,0.0,0.0,75,0.00,CLR,,0.00,0.0,WeatherDisplay:10.37,2013-06-27 02:25:00,
2013-06-26 21:30:00,83.0,74.3,29.87,West,281,0.0,0.0,75,0.00,CLR,,0.00,0.0,WeatherDisplay:10.37,2013-06-27 02:30:00,
2013-06-26 21:35:00,82.9,74.6,29.87,West,281,0.0,0.0,76,0.00,CLR,,0.00,0.0,WeatherDisplay:10.37,2013-06-27 02:35:00,
2013-06-26 21:40:00,82.3,74.4,29.88,West,281,0.0,0.0,77,0.00,CLR,,0.00,0.0,WeatherDisplay:10.37,2013-06-27 02:40:00,
2013-06-26 21:45:00,81.7,74.2,29.88,West,281,0.0,0.0,78,0.00,CLR,,0.00,0.0,WeatherDisplay:10.37,2013-06-27 02:45:00,
2013-06-26 21:50:00,81.4,74.3,29.88,West,281,0.0,0.0,79,0.00,CLR,,0.00,0.0,WeatherDisplay:10.37,2013-06-27 02:50:00,
2013-06-26 21:55:00,81.2,74.1,29.88,West,281,0.0,0.0,79,0.00,CLR,,0.00,0.0,WeatherDisplay:10.37,2013-06-27 02:55:00,
2013-06-26 22:00:00,81.0,73.9,29.88,West,281,0.0,0.0,79,0.00,CLR,,0.00,0.0,WeatherDisplay:10.37,2013-06-27 03:00:00,
2013-06-26 22:05:00,80.9,74.1,29.89,West,281,0.0,0.0,80,0.00,CLR,,0.00,0.0,WeatherDisplay:10.37,2013-06-27 03:05:00,
2013-06-26 22:10:00,80.8,74.0,29.89,West,281,0.0,0.0,80,0.00,CLR,,0.00,0.0,WeatherDisplay:10.37,2013-06-27 03:10:00,
2013-06-26 22:15:00,80.7,74.0,29.89,West,281,0.0,0.0,80,0.00,CLR,,0.00,0.0,WeatherDisplay:10.37,2013-06-27 03:15:00,
2013-06-26 22:20:00,80.3,73.9,29.89,West,281,0.0,0.0,81,0.00,CLR,,0.00,0.0,WeatherDisplay:10.37,2013-06-27 03:20:00,
2013-06-26 22:25:00,80.2,74.2,29.89,West,281,0.0,0.0,82,0.00,CLR,,0.00,0.0,WeatherDisplay:10.37,2013-06-27 03:25:00,
2013-06-26 22:30:00,80.0,74.0,29.89,West,281,0.0,0.0,82,0.00,CLR,,0.00,0.0,WeatherDisplay:10.37,2013-06-27 03:30:00,
2013-06-26 22:35:00,80.0,73.3,29.89,West,281,0.0,0.0,80,0.00,CLR,,0.00,0.0,WeatherDisplay:10.37,2013-06-27 03:35:00,
2013-06-26 22:40:00,80.0,73.6,29.89,West,281,0.0,0.0,81,0.00,CLR,,0.00,0.0,WeatherDisplay:10.37,2013-06-27 03:40:00,
2013-06-26 22:45:00,79.9,73.9,29.90,West,281,0.0,0.0,82,0.00,CLR,,0.00,0.0,WeatherDisplay:10.37,2013-06-27 03:45:00,
2013-06-26 22:50:00,79.6,74.0,29.90,West,281,0.0,0.0,83,0.00,CLR,,0.00,0.0,WeatherDisplay:10.37,2013-06-27 03:50:00,
2013-06-26 22:55:00,79.4,73.8,29.90,West,281,0.0,0.0,83,0.00,CLR,,0.00,0.0,WeatherDisplay:10.37,2013-06-27 03:55:00,
2013-06-26 23:00:00,79.4,73.8,29.90,West,281,0.0,0.0,83,0.00,CLR,,0.00,0.0,WeatherDisplay:10.37,2013-06-27 04:00:00,
2013-06-26 23:01:00,79.4,73.8,29.90,West,281,0.0,0.0,83,0.00,CLR,,0.00,0.0,WeatherDisplay:10.37,2013-06-27 04:01:00,
2013-06-26 23:03:00,79.3,74.0,29.90,West,281,0.0,0.0,84,0.00,CLR,,0.00,0.0,WeatherDisplay:10.37,2013-06-27 04:03:00,
2013-06-26 23:08:00,79.0,74.1,29.90,West,281,0.0,0.0,85,0.00,CLR,,0.00,0.0,WeatherDisplay:10.37,2013-06-27 04:08:00,
2013-06-26 23:13:00,78.7,74.2,29.91,West,281,0.0,0.0,86,0.00,CLR,,0.00,0.0,WeatherDisplay:10.37,2013-06-27 04:13:00,
2013-06-26 23:18:00,78.5,74.0,29.91,West,281,0.0,0.0,86,0.00,CLR,,0.00,0.0,WeatherDisplay:10.37,2013-06-27 04:18:00,
2013-06-26 23:23:00,78.4,73.9,29.91,West,281,0.0,0.0,86,0.00,CLR,,0.00,0.0,WeatherDisplay:10.37,2013-06-27 04:23:00,
2013-06-26 23:28:00,78.3,73.8,29.91,West,281,0.0,0.0,86,0.00,CLR,,0.00,0.0,WeatherDisplay:10.37,2013-06-27 04:28:00,
2013-06-26 23:33:00,78.2,73.7,29.92,West,281,0.0,0.0,86,0.00,CLR,,0.00,0.0,WeatherDisplay:10.37,2013-06-27 04:33:00,
2013-06-26 23:38:00,78.0,73.5,29.91,West,281,0.0,0.0,86,0.00,CLR,,0.00,0.0,WeatherDisplay:10.37,2013-06-27 04:38:00,
2013-06-26 23:43:00,78.0,73.5,29.92,West,281,0.0,0.0,86,0.00,CLR,,0.00,0.0,WeatherDisplay:10.37,2013-06-27 04:43:00,
2013-06-26 23:48:00,77.8,73.6,29.92,West,281,0.0,0.0,87,0.00,CLR,,0.00,0.0,WeatherDisplay:10.37,2013-06-27 04:48:00,
2013-06-26 23:53:00,77.9,73.7,29.92,West,281,0.0,0.0,87,0.00,CLR,,0.00,0.0,WeatherDisplay:10.37,2013-06-27 04:53:00,
2013-06-26 23:58:00,78.0,73.5,29.91,West,281,0.0,0.0,86,0.00,CLR,,0.00,0.0,WeatherDisplay:10.37,2013-06-27 04:58:00,